Current Version              Previous Version:    01  02  03  04  05  06  07  08  09  10  11  12  13  14  15  16  17  18  19  20  21  22  23  24  25  26  27  28  29  30  
   31  32  33  34  35  36  37  38  39  40  41  42  43  44  45  46  47  48  49  50  51  52  53  54  55  56  57  58  59  60  

[Printable]
121
ASUS44 KEWX 020410
RWRTX
SOUTH TEXAS REGIONAL WEATHER ROUNDUP
NATIONAL WEATHER SERVICE AUSTIN/SAN ANTONIO TX
1100 PM CDT MON SEP 01 2014

NOTE: "FAIR" INDICATED FEW OR NO CLOUDS BELOW 12,000 FEET WITH NO
SIGNIFICANT WEATHER AND/OR OBSTRUCTIONS TO VISIBILITY.

* - THESE STATIONS ARE NOT NWS OR FAA STATIONS...AND ARE NOT SUBJECT
    TO NWS AND FAA QUALITY CONTROL.

TXZ171-172-183>190-020500-
TEXAS HILL COUNTRY AND EDWARDS PLATEAU

CITY           SKY/WX    TMP DP  RH WIND       PRES   REMARKS
JUNCTION       CLEAR     84  63  49 SE7       29.93R
*LLANO         CLEAR     88  68  51 SE10      29.95R HX  91
BURNET         CLEAR     84  67  56 S10G18    29.96R
*HORSESHOE BAY CLEAR     85  67  54 SE13G20   29.93R
*KERRVILLE     CLEAR     82  70  65 SE13G18   29.96R
*FREDERICKSBRG CLEAR     83  68  60 S12G18    29.96R
*ROCKSPRINGS   CLEAR     82  63  51 SE10G17   29.98R
*BOERNE STAGE  CLEAR     82  68  61 SE9G16    29.97R
*CASTROVILLE   CLEAR     85  68  56 SE13G22   29.94R
HONDO          CLEAR     85  72  65 SE17G26   29.93R HX  91
*UVALDE        CLEAR     88  71  56 SE17G26   29.90R HX  93
DEL RIO        CLEAR     91  62  37 SE10      29.84R HX  91
LAUGHLIN AFB   CLEAR     89  62  41 SE9       29.86R
CARRIZO SPRGS  CLEAR     88  70  55 SE13G20   29.86R HX  92
$$

TXZ173-191>194-202-209-217>225-228-020500-
CENTRAL AND SOUTH CENTRAL TEXAS

CITY           SKY/WX    TMP DP  RH WIND       PRES   REMARKS
GEORGETOWN     CLEAR     84  70  61 S10G21    29.94R
AUSTIN/BERGSTM CLEAR     84  72  67 S12       29.92R
AUSTIN/MABRY   CLEAR     85  72  65 S7G20     29.93R HX  91
*AUSTIN/EXEC   MOCLDY    84  72  65 S10       29.94R
*LAGO VISTA    CLEAR     84  69  60 S13G20    29.96R
SAN MARCOS     CLEAR     82  66  57 S10       29.95R
NEW BRAUNFELS  CLEAR     83  71  67 S15       29.92R
RANDOLPH AFB   CLEAR     83  70  65 SE13      29.94R
PT SAN ANTONIO CLEAR     84  72  66 SE14      29.92R HX  90
SAN ANTONIO    CLEAR     85  72  65 SE13      29.94R HX  91
STINSON FIELD  CLEAR     84  72  67 SE13      29.91R
*PLEASANTON    CLEAR     83  71  65 SE7       29.91R
*LA GRANGE     CLEAR     83  75  76 S6        29.93R HX  90
*GIDDINGS      CLEAR     82  71  68 S7        29.98R
*GONZALES      CLEAR     82  75  78 SE12      29.92R
$$

TXZ163>164-176>182-195>201-210>213-226-227-235-020500-
SOUTHEAST TEXAS

CITY           SKY/WX    TMP DP  RH WIND       PRES   REMARKS
COLLEGE STN    CLEAR     83  73  72 SE12      29.94R
*BRYAN         CLEAR     83  73  71 SE14      29.93S
*CALDWELL      CLEAR     82  72  69 SE10      29.97R
*CROCKETT      CLEAR     82  79  89 SE5       29.97F HX  93
*BRENHAM       CLEAR     82  74  75 SE6       29.95S
HUNTSVILLE     CLEAR     82  74  76 MISG      29.95S
CONROE         CLEAR     79  75  87 SE6       29.96S
HOUSTON BUSH   PTCLDY    81  75  83 S5        29.95S
HOUSTON HOBBY  PTCLDY    82  77  84 SE7       29.95S HX  90
*HOUSTON SW AP CLEAR     78  78 100 CALM      29.96S
PEARLAND       CLEAR     82  77  84 SE5       29.97R HX  90
HOUSTON HOOKS  CLEAR     81  75  82 SE5       29.95S
ELLINGTON FLD  PTCLDY    82  79  89 SE5       29.97R HX  93
SUGAR LAND     CLEAR     82  77  84 SE9       29.95S HX  90
*HOUSTON EXEC  CLEAR     81  79  94 SE8       29.96S
*CLEVELAND MUN CLEAR     78  77  95 CALM      29.97S
*WHARTON       CLEAR     78  76  93 SE5       29.95S
$$

TXZ214>216-236>238-020500-
THE UPPER TEXAS COAST

CITY           SKY/WX    TMP DP  RH WIND       PRES   REMARKS
*ORANGE        PTCLDY    81  80  98 SE5       29.99F HX  91
PORT ARTHUR    CLEAR     81  77  88 S8        29.96F
GALVESTON      CLEAR     83  77  82 SE12      29.97S HX  92
ANGLETON       CLEAR     80  77  90 SE6       29.95S
*BAY CITY      CLEAR     81  81 100 SE6       29.95R HX  94
PALACIOS       CLEAR     83  77  82 SE9       29.93R HX  92
$$

TXZ229>234-239>247-020500-
TEXAS COASTAL BEND AND RIO GRANDE PLAINS

CITY           SKY/WX    TMP DP  RH WIND       PRES   REMARKS
VICTORIA       CLEAR     82  78  88 SE9       29.93R HX  91
*BEEVILLE      PTCLDY    81  77  87 SE9       29.92R
ROCKPORT       PTCLDY    84  78  82 SE13      29.92R HX  95
*PORT ARANSAS  PTCLDY    84  78  83 SE10G16   29.91S HX  94
*PORT LAVACA   CLEAR     81  77  88 SE8       29.93S
*INGLESIDE     CLEAR     84  77  78 SE12      29.91R HX  94
CORPUS CHRISTI PTCLDY    83  77  82 SE12      29.91R HX  92
CORPUS NAS     CLEAR     85  79  82 SE16      29.91R HX  98
*ROBSTOWN      CLEAR     83  77  81 SE7       29.92R HX  93
ALICE          LGT RAIN  82  77  84 SE9       29.90R HX  90
KINGSVILLE NAS CLEAR     83  79  88 E6        29.90R HX  94
COTULLA        CLEAR     86  68  54 SE16      29.89R
*FAITH RANCH   CLEAR     90  70  51 SE16G24   29.86R HX  95
LAREDO         CLEAR     88  73  60 SE17      29.90R HX  95
$$

TXZ248>255-020500-
DEEP SOUTH TEXAS

CITY           SKY/WX    TMP DP  RH WIND       PRES   REMARKS
BROWNSVILLE    CLEAR     83  79  88 E8        29.90R HX  94
PORT ISABEL    PTCLDY    85  78  80 E13       29.90R HX  96
*SOUTH PADRE   CLEAR     84  79  84 SE14      29.90R HX  96
HARLINGEN      CLEAR     83  77  82 SE10      29.89R HX  92
*HEBBRONVILLE  CLEAR     82  74  75 E10G17    29.92R
MCALLEN        CLEAR     83  76  79 SE9       29.89R HX  91
*WESLACO       NOT AVBL
FALFURRIAS     CLEAR     75  70  85 CALM      29.90R
EDINBURG       CLEAR     85  75  73 SE10      29.89R HX  93
*ZAPATA        CLEAR     86  72  61 E15G22    29.87R HX  92
$$

TXZ213>215-236>238-242>244-246-247-251-254-255-020500-
CMAN STATIONS

STATION/POSITION TIME  TEMP    WIND        PRES    WAVE
                       AIR SEA DIR/SP/G            HT/PER
                 (UTC) (F)     (DEG/KT/KT) (MB)    (FT/S)
SABINE PASS      0400   83 84  170/  7/ 10 1015.2
SEA RIM ST PARK  0400   83     170/ 10/ 13 1015.6
NORTH JETTY/GLS  0400   84 84  180/ 15/ 17   N/A
EAGLE POINT      0400   84 85  170/ 13/ 15 1014.6
MORGANS POINT    0400   84     140/  7/ 11 1014.4
MISSION/ARANSAS  0300   83     130/ 12     1014.0
PORT O`CONNOR    0400          130/ 15/ 18   N/A
PORT ARANSAS     0400   84 86  110/ 17/ 18 1013.6
MALAQUITE BEACH  0400   85 85  110/ 15/ 19 1012.1
BAFFIN BAY       0400   84 85  120/ 12/ 14 1012.5
PORT ISABEL      0400   84 85  100/ 11/ 16 1012.7
$$

GMZ080-GMZ150>470-020500-
OFFSHORE BUOY REPORTS

STATION/POSITION TIME  TEMP    WIND        PRES    WAVE
                       AIR SEA DIR/SP/G            HT/PER
                 (UTC) (F)     (DEG/KT/KT) (MB)    (FT/S)
20 E GALVESTON   0400   84 85  150/ 14/ 17 1014.4    3/ 6
90 E PT ARANSAS  0400   83 85  140/ 16/ 17 1014.2    4/ 8
35 NE PT MANSFLD 0400   85 85  120/ 16/ 19 1012.2    4/ 7
200 E PT ISABEL  0400   84 85  130/ 19/ 23 1013.7    5/ 6
$$